Location: Julian California
(33.0790°N, 116.6010°W)
Time: 18:11:26
(UTC-07:00)

NOSS 3-1 (A) - Pass Details

Date: 14 June 2018
Orbit: 803 x 1409 km, 63.4° (Epoch: 13 June)

Event Time Altitude Azimuth Distance (km) Brightness Sun altitude
Rises 21:03:52 0° 217° (SW) 3,309 6.3 -12.5°
Reaches altitude 10° 21:06:13 10° 220° (SW) 2,405 5.6 -12.9°
Maximum altitude 21:11:40 66° 302° (WNW) 942 3.7 -13.8°
Drops below altitude 10° 21:17:47 10° 25° (NNE) 2,682 6.0 -14.8°
Sets 21:20:33 0° 28° (NNE) 3,721 6.7 -15.2°
